Showing default

PRATHAM, 41783

Orbit data source: Space-Track

PRATHAM, 41783 is a payload satellite owned by IITB (IN) in SSO that was launched on Mon, 26 Sep 2016 UTC via a PSLV launch vehicle from the Sirharikota (SRI). Payload-class satellites include a variety of spacecraft equipped with specific instruments for various scientific and technological missions. These include communications satellites like Starlink; space stations such as the ISS; scientific satellites like the Hubble; Earth observation satellites from companies like Planet Labs, Umbra, and HawkEye 360; GPS; miniature CubeSats for education and research; and military/defense satellites.

Loading next visibility...
Identifier
41783, 2016-059A
Orbit
SSO
Country
Flag of ININ / IND
Related business
Manufacturer
IITB
Mission
Non-operational Amateur Science
Bus & Motor
PRATHAM, Unknown motor
Mass
10 kg wet, 10 kg dry
Launch date (UTC)
2016-09-26 (9 years ago)
Launch vehicle
PSLV
Launch site
Sirharikota (SRI)
Object type
Payload
Rocket body
Debris
Shape & HBR
Box, 0.2 m
Radar Cross Section
0.251 m², Small (<0.1 m²)

Expand to show TLE details & history
Last TLE update: 20 hours ago

TLE from 20 hours ago
0 PRATHAM
1 41783U 16059A   25257.94542304  .00000683  00000-0  13057-3 0  9992
2 41783  97.8275 262.1575 0032034  17.9034 342.3292 14.66572530479168
Epoch: 2025-09-14T22:41Z
TLE epoch observation values (Epoch: 2025-09-14T22:41:24.55Z)
Latitude
0.00002°
Longitude
-72.35194°
Altitude
653.52 km
Speed
7.542 km/s
True Right ascension
17h 28m 37s
True Declination
0° 00' 00"
Sunlit
Object was in daylight at epoch
Visualization orbit readout
Latitude
Unknown
Longitude
Unknown
Altitude
Unknown
Speed
Unknown
Apparent Right ascension
Unknown
Apparent Declination
Unknown
Sunlit
N/A
Visualization observer readout
Local Sidereal Time
11:10:52
Azimuth
Unknown
Elevation
Unknown
Doppler factor
Unknown
Orbital elements
Apogee altitude
691.662 km
Perigee altitude
646.512 km
Semi-major axis
7,047.224 km
Eccentricity
0.0032
Inclination
97.8275°
RAAN
262.1575°
Arg. of periapsis
17.9034°
True anomaly
342.21735°
Mean anomaly
342.3292°
Eccentric anomaly
342.27332°
Mean motion
3.66873 °/min
Orbital period
98.13 mins
BSTAR
0.00013057
Loading maneuver chart data...
Computing Atmospheric mass density...
Loading historical data...
Loading historical data...
Loading historical data...
Loading historical data...
Loading historical data...
Loading historical data...
Loading historical data...

Documentation

Showing up to 5 results
|